STARLINK-3112, 49421

Orbit data source: Space-Track

STARLINK-3112, 49421 is a payload satellite owned by SpaceX/Seattle (US) in LEO that was launched on Sat, 13 Nov 2021 UTC via an FALCON 9 launch vehicle from the Air Force Eastern Test Range (AFETR). Payload-class satellites include a variety of spacecraft equipped with specific instruments for various scientific and technological missions. These include communications satellites like Starlink; space stations such as the ISS; scientific satellites like the Hubble; Earth observation satellites from companies like Planet Labs, Umbra, and HawkEye 360; GPS; miniature CubeSats for education and research; and military/defense satellites.

Loading next visibility...
Identifier
49421, 2021-104P
Orbit
LEO
Country
Flag of USUS
Related business
Manufacturer
SpaceX/Seattle
Mission
Operational Commercial Communications
Bus & Motor
STARLINK, Unknown motor
Mass
290 kg wet, ~270 kg dry
Launch date (UTC)
2021-11-13 (5 years ago)
Launch vehicle
FALCON 9
Launch site
Air Force Eastern Test Range (AFETR)
Object type
Payload
Rocket body
Debris
Shape & HBR
Box + 1 Pan, 10.1 m
Radar Cross Section
13.562 m², Large (>1 m²)

Expand to show TLE details & history
Last TLE update: 1 week ago

TLE from 1 week ago
0 STARLINK-3112
1 49421U 21104P   26154.77986583 -.00000943  00000-0 -41191-4 0  9997
2 49421  53.1806 202.4330 0001680 139.7171 220.3946 15.08822104251626
Epoch: 2026-06-03T18:43Z
TLE epoch observation values (Epoch: 2026-06-03T18:43:00.407Z)
Latitude
0.00002°
Longitude
29.44774°
Altitude
541.577 km
Speed
7.592 km/s
True Right ascension
13h 29m 43s
True Declination
0° 00' 00"
Sunlit
Object was in full shadow at epoch
Visualization orbit readout
Latitude
Unknown
Longitude
Unknown
Altitude
Unknown
Speed
Unknown
Apparent Right ascension
Unknown
Apparent Declination
Unknown
Sunlit
N/A
Visualization observer readout
Local Sidereal Time
14:54:45
Azimuth
Unknown
Elevation
Unknown
Doppler factor
Unknown
Orbital elements
Apogee altitude
541.211 km
Perigee altitude
538.887 km
Semi-major axis
6,918.186 km
Eccentricity
0.00017
Inclination
53.1806°
RAAN
202.433°
Arg. of periapsis
139.7171°
True anomaly
220.38213°
Mean anomaly
220.3946°
Eccentric anomaly
220.38836°
Mean motion
3.77185 °/min
Orbital period
95.44 mins
BSTAR
-0.000041191
Loading maneuver chart data...
Computing Atmospheric mass density...
Loading historical data...
Loading historical data...
Loading historical data...
Loading historical data...
Loading historical data...
Loading historical data...
Loading historical data...

Documentation

Showing up to 5 results
|